Weather in Bekdash

Turkmenistan     41°32′23″N   52°34′12″E
temp.,
°C
wind,
m/s
gust,
m/s
humid.,
%
clouds,
%
prec.,
mm/h
press.,
hPa
HPBL,
m
12 august, fri
fri1223:00+28e812410 0.0 101279
02:00+27e684730 0.0 101271
05:00+26e712485 0.0 1012124
08:00+26e69501 0.0 101395
11:00+28ese56450 0.0 101335
14:00+28sse22520 0.0 101213
17:00+28wnw66560 0.0 101243
20:00+27nw66580 0.0 101139
13 august, sat
sat1323:00+26n44630 0.0 101219
02:00+27e67455 0.0 101249
05:00+26ene710475 0.0 101289
08:00+26ene57534 0.0 101261
11:00+28ese44480 0.0 101219
14:00+29ssw33502 0.0 101111
17:00+28nnw67602 0.0 100951
20:00+28nnw810530 0.0 100858
14 august, sun
sun1423:00+28ne55502 0.0 100920
02:00+28e67440 0.0 100844
05:00+27e68472 0.0 100865
08:00+26ese55521 0.0 100941
11:00+28se44496 0.0 100913
14:00+29ssw33495 0.0 100811
17:00+28nnw66585 0.0 100740
20:00+28nnw55570 0.0 100630
15 august, mon
mon1523:00+29ne33470 0.0 100712
02:00+28e66450 0.0 100738
05:00+27ese69500 0.0 100872
08:00+27ese67520 0.0 100957
11:00+29se44490 0.0 101018
14:00+29sw11500 0.0 100911
17:00+30wnw44520 0.0 100822
20:00+28nw56570 0.0 100830
16 august, tue
tue1623:00+28ne33500 0.0 100912
02:00+28e69420 0.0 100948
05:00+27e69480 0.0 101072
08:00+26e67530 0.0 101267
11:00+29ese56460 0.0 101229
14:00+30sse44450 0.0 101112
17:00+31ese55390 0.0 101014
20:00+31ese66380 0.0 101031